Retour au catalogue

STARLINK-37775

ActifCommunicationsSSO
NORAD 69348·PAYLOAD·🇺🇸 United States

Lancé Jun 3, 2026 depuis Vandenberg Space Force Base

Loading…

Prochains Passages (prochaines 24 heures)

TLE

FraisSource: CelesTrak SupGP

Époque: Sep 14, 2026, 23:02 UTC

1 69348C 26122V   26257.96020833  .00031222  00000+0  96929-3 0  2570
2 69348  97.2829 286.7039 0001225  95.6161 248.3198 15.33420988    11

Suivez STARLINK-37775 en temps réel avec AllMySat

Download on the App Store